TimeCDT,TemperatureF,Dew PointF,Humidity,Sea Level PressureIn,VisibilityMPH,Wind Direction,Wind SpeedMPH,Gust SpeedMPH,PrecipitationIn,Events,Conditions,WindDirDegrees,DateUTC
12:15 AM,66.2,60.8,83,30.06,10.0,South,3.5,-,N/A,,Clear,190,2013-07-06 05:15:00
12:35 AM,66.2,60.8,83,30.06,10.0,South,4.6,-,N/A,,Clear,180,2013-07-06 05:35:00
12:55 AM,64.4,60.8,88,30.06,7.0,SSW,3.5,-,N/A,,Clear,200,2013-07-06 05:55:00
1:15 AM,64.4,60.8,88,30.06,7.0,SSW,4.6,-,N/A,,Clear,200,2013-07-06 06:15:00
1:35 AM,64.4,60.8,88,30.06,7.0,South,5.8,-,N/A,,Clear,180,2013-07-06 06:35:00
1:55 AM,64.4,60.8,88,30.06,10.0,South,3.5,-,N/A,,Clear,190,2013-07-06 06:55:00
2:15 AM,62.6,59.0,88,30.06,7.0,Calm,Calm,-,N/A,,Clear,0,2013-07-06 07:15:00
2:35 AM,60.8,59.0,94,30.06,7.0,Calm,Calm,-,N/A,,Clear,0,2013-07-06 07:35:00
2:55 AM,60.8,59.0,94,30.06,7.0,South,3.5,-,N/A,,Clear,170,2013-07-06 07:55:00
3:15 AM,62.6,59.0,88,30.06,7.0,South,6.9,-,N/A,,Clear,170,2013-07-06 08:15:00
3:35 AM,62.6,60.8,94,30.06,7.0,South,5.8,-,N/A,,Clear,170,2013-07-06 08:35:00
3:55 AM,62.6,59.0,88,30.06,7.0,South,3.5,-,N/A,,Clear,180,2013-07-06 08:55:00
4:15 AM,62.6,59.0,88,30.06,7.0,South,5.8,-,N/A,,Clear,180,2013-07-06 09:15:00
4:35 AM,62.6,59.0,88,30.07,7.0,SSW,3.5,-,N/A,,Clear,210,2013-07-06 09:35:00
4:55 AM,62.6,59.0,88,30.07,5.0,SW,3.5,-,N/A,,Clear,220,2013-07-06 09:55:00
5:15 AM,60.8,59.0,94,30.07,5.0,Calm,Calm,-,N/A,,Clear,0,2013-07-06 10:15:00
5:35 AM,60.8,59.0,94,30.07,5.0,SSW,3.5,-,N/A,,Clear,200,2013-07-06 10:35:00
5:45 AM,64.4,60.8,88,30.08,10.0,Calm,Calm,-,N/A,,Clear,0,2013-07-06 10:45:00
6:45 AM,64.4,60.8,88,30.08,10.0,Calm,Calm,-,N/A,,Clear,0,2013-07-06 11:45:00
7:45 AM,69.8,62.6,78,30.07,10.0,SSW,5.8,-,N/A,,Clear,210,2013-07-06 12:45:00
8:45 AM,73.4,62.6,69,30.08,10.0,WSW,6.9,-,N/A,,Clear,240,2013-07-06 13:45:00
9:45 AM,75.2,62.6,65,30.07,10.0,WSW,6.9,-,N/A,,Clear,240,2013-07-06 14:45:00
10:45 AM,77.0,60.8,57,30.07,10.0,SSW,5.8,-,N/A,,Clear,210,2013-07-06 15:45:00
11:45 AM,78.8,60.8,54,30.06,10.0,South,6.9,-,N/A,,Partly Cloudy,180,2013-07-06 16:45:00
12:45 PM,80.6,59.0,48,30.05,10.0,South,4.6,-,N/A,,Partly Cloudy,190,2013-07-06 17:45:00
1:45 PM,80.6,55.4,42,30.04,10.0,South,4.6,-,N/A,,Partly Cloudy,190,2013-07-06 18:45:00
2:45 PM,80.6,59.0,48,30.03,10.0,SE,4.6,-,N/A,,Scattered Clouds,140,2013-07-06 19:45:00
3:45 PM,80.6,57.2,45,30.03,10.0,SSE,9.2,-,N/A,,Scattered Clouds,160,2013-07-06 20:45:00
4:45 PM,80.6,57.2,45,30.01,10.0,South,6.9,-,N/A,,Scattered Clouds,170,2013-07-06 21:45:00
5:45 PM,80.6,55.4,42,30.00,10.0,South,6.9,-,N/A,,Partly Cloudy,170,2013-07-06 22:45:00
6:45 PM,78.8,64.4,61,29.99,10.0,South,6.9,-,N/A,,Partly Cloudy,170,2013-07-06 23:45:00
7:45 PM,75.2,66.2,73,29.99,10.0,South,9.2,-,N/A,,Scattered Clouds,170,2013-07-07 00:45:00
8:45 PM,73.4,64.4,73,30.00,10.0,SSE,5.8,-,N/A,,Mostly Cloudy,160,2013-07-07 01:45:00
9:15 PM,71.6,64.4,78,30.00,10.0,South,3.5,-,N/A,,Clear,170,2013-07-07 02:15:00
9:35 PM,71.6,64.4,78,30.01,10.0,South,3.5,-,N/A,,Clear,170,2013-07-07 02:35:00
9:55 PM,71.6,64.4,78,30.02,10.0,SSE,5.8,-,N/A,,Clear,160,2013-07-07 02:55:00
10:15 PM,71.6,64.4,78,30.01,10.0,South,4.6,-,N/A,,Clear,180,2013-07-07 03:15:00
10:35 PM,69.8,64.4,83,30.02,10.0,South,3.5,-,N/A,,Clear,180,2013-07-07 03:35:00
10:55 PM,69.8,64.4,83,30.02,7.0,South,5.8,-,N/A,,Clear,170,2013-07-07 03:55:00
11:15 PM,69.8,64.4,83,30.02,7.0,SSE,5.8,-,N/A,,Clear,160,2013-07-07 04:15:00
11:35 PM,69.8,64.4,83,30.02,7.0,South,4.6,-,N/A,,Clear,180,2013-07-07 04:35:00
11:55 PM,69.8,64.4,83,30.02,10.0,SSW,5.8,-,N/A,,Clear,200,2013-07-07 04:55:00